User: anonymous   Login
Location: Walnut Point State Park
(39.6958°N, 88.0345°W)
Time: 22:31:32
(UTC-05:00)
Language:

ATLAS 3B R/B - Orbit

View from above orbital plane
View from above orbital plane
View from above satellite
View from above satellite

Ground track
Ground track

The orbit data is extracted from the following two-line orbital elements,

1 28538U 05004B   17177.98450057 0.00000010  00000-0  16504-4 0    00
2 28538  63.8228 271.8846 0139000 175.4820 184.5180 13.43098998    04
Epoch (UTC): 26 June 2017 23:37:40
Eccentricity: 0.0139000
inclination: 63.8228°
perigee height: 994 km
apogee height: 1201 km
right ascension of ascending node: 271.8846°
argument of perigee: 175.4820°
revolutions per day: 13.43098998
mean anomaly at epoch: 184.5180°
orbit number at epoch: 0

The dashed part of the orbit path shows where the satellite is in the earth's shadow,  

DLR